Home > Weather > Oulu > Past weeks

Flag for Finland Weather for the Past 2 Weeks in Oulu, Finland

Now
57 °F

Passing clouds.


Feels Like: 55 °F
Forecast: 37 / 51 °F
Wind: 10 mph from Northwest

Location: Oulu Airport

Current Time: May 1, 2016 at 1:35:44 PM

Latest Report: May 1, 2016 at 1:20 PM


Visibility: N/A

Pressure: 30.27 "Hg

Humidity: 48%

Dew Point: 37 °F

Location of OuluLocation

Historic Weather in Oulu — Graph

°F

Oulu Temperature Yesterday

Maximum temperature yesterday: 52 °F (at 12:20 PM)
Minimum temperature yesterday: 36 °F (at 4:20 AM)
Average temperature yesterday: 45 °F

High & Low Weather Summary for the Past Weeks

 TemperatureHumidityPressure
High61 °F (May 1, 12:20 PM)100% (Apr 17, 7:50 PM)30.42 "Hg (Apr 17, 7:50 PM)
Low27 °F (Apr 23, 12:20 AM)35% (Apr 24, 11:50 AM)29.39 "Hg (Apr 18, 3:20 PM)
Average40 °F79%29.83 "Hg
* Reported Apr 16 12:20 PM — May 1 12:20 PM, Oulu, Weather by CustomWeather, © 2016

Note: Actual official high and low records may vary slightly from our data, if they occured in-between our weather recording intervals... More about our weather records

Advertising

Oulu Weather History for the Previous 24 Hours

Scroll right to see more
 ConditionsComfort  
Time TempWeatherWind HumidityBarometerVisibility
12:20 PM
Sun, May 1
61 °FPassing clouds.3 mph39%30.27 "HgN/A
11:50 AM59 °FSunny.2 mph45%30.27 "Hg10 mi
11:20 AM57 °FPassing clouds.2 mph48%30.27 "HgN/A
10:50 AM52 °FBroken clouds.6 mph58%30.30 "HgN/A
9:50 AM50 °FPassing clouds.7 mph62%30.27 "HgN/A
9:20 AM48 °FPassing clouds.5 mph62%30.27 "HgN/A
8:50 AM46 °FPassing clouds.7 mph66%30.27 "HgN/A
8:20 AM43 °FSunny.7 mph76%30.27 "Hg10 mi
7:20 AM43 °FSunny.7 mph71%30.27 "Hg10 mi
6:50 AM41 °FPassing clouds.5 mph81%30.24 "HgN/A
6:20 AM39 °FPartly sunny.3 mph87%30.24 "HgN/A
5:20 AM36 °FPassing clouds.2 mph93%30.27 "HgN/A
4:50 AM34 °FClear.1 mph93%30.27 "Hg10 mi
4:20 AM34 °FClear.No wind93%30.27 "Hg10 mi
3:50 AM36 °FClear.1 mph93%30.27 "Hg10 mi
3:20 AM36 °FClear.5 mph93%30.27 "Hg10 mi
2:50 AM37 °FPassing clouds.6 mph87%30.27 "HgN/A
2:20 AM37 °FPassing clouds.5 mph87%30.27 "HgN/A
1:50 AM39 °FClear.3 mph87%30.27 "Hg10 mi
1:20 AM41 °FClear.3 mph81%30.27 "Hg10 mi
12:50 AM43 °FClear.5 mph81%30.27 "Hg10 mi
12:20 AM43 °FClear.7 mph76%30.27 "Hg10 mi
11:50 PM
Sat, Apr 30
45 °FClear.6 mph76%30.27 "Hg10 mi
11:20 PM46 °FClear.6 mph71%30.30 "Hg10 mi
10:50 PM43 °FPassing clouds.7 mph76%30.30 "HgN/A
10:20 PM43 °FPassing clouds.5 mph76%30.30 "HgN/A
9:50 PM46 °FPassing clouds.7 mph66%30.30 "HgN/A
9:20 PM46 °FScattered clouds.7 mph66%30.30 "HgN/A
8:50 PM46 °FPassing clouds.9 mph66%30.30 "HgN/A
8:20 PM46 °FSunny.8 mph62%30.30 "Hg10 mi
7:50 PM46 °FScattered clouds.10 mph62%30.33 "HgN/A
7:20 PM48 °FBroken clouds.12 mph58%30.33 "HgN/A
6:50 PM50 °FPartly sunny.12 mph50%30.33 "HgN/A
6:20 PM52 °FScattered clouds.14 mph47%30.33 "HgN/A
5:50 PM52 °FSunny.14 mph47%30.33 "Hg10 mi
5:20 PM52 °FPassing clouds.13 mph47%30.33 "HgN/A
4:50 PM52 °FPassing clouds.15 mph50%30.36 "HgN/A
4:20 PM50 °FSunny.14 mph54%30.36 "Hg10 mi
3:50 PM50 °FPassing clouds.16 mph54%30.36 "HgN/A
3:20 PM50 °FScattered clouds.15 mph58%30.36 "HgN/A
2:50 PM50 °FScattered clouds.14 mph58%30.36 "HgN/A
2:20 PM50 °FPassing clouds.14 mph62%30.36 "HgN/A
1:50 PM52 °FScattered clouds.14 mph58%30.39 "HgN/A
1:20 PM50 °FPartly sunny.12 mph62%30.39 "HgN/A
Weather by CustomWeather, © 2016

See weather overviewHow to use our weather pages